iso_date,epoch_date,Year,Hour,Min,DOY,POS_DOY,Lat,Lon,BP,Ts,Ta,has_bp,has_ts,has_ta,BuoyID,Buoy_Type,Buoy_Owner,Logistics,Hemisphere
2017-08-08T21:47:31Z,1502228851,2017,21,48,220.908,220.908,70.0676,-168.66666,1012.6,-999.00,-999.0,yes,no,no,300025060605620,IMB,AWI-USIABP,unknown,North
2017-08-08T22:00:28Z,1502229629,2017,22,1,220.917,220.917,70.11372,-168.66688,1010.7,-999.00,-999.0,yes,no,no,300025060605620,IMB,AWI-USIABP,unknown,North
2017-08-08T22:59:31Z,1502233171,2017,23,0,220.958,220.958,70.31912,-168.66651,1009.4,-999.00,-999.0,yes,no,no,300025060605620,IMB,AWI-USIABP,unknown,North
2017-08-09T00:00:00Z,1502236800,2017,0,0,221.0,221.0,70.5003,-168.6662,1008.1,-999.00,-999.0,yes,no,no,300025060605620,IMB,AWI-USIABP,unknown,North
2017-08-09T01:00:28Z,1502240429,2017,1,0,221.042,221.042,70.50002,-168.66613,1006.9,-999.00,-999.0,yes,no,no,300025060605620,IMB,AWI-USIABP,unknown,North
2017-08-09T01:59:31Z,1502243971,2017,2,0,221.083,221.083,70.50037,-168.66618,1006.3,-999.00,-999.0,yes,no,no,300025060605620,IMB,AWI-USIABP,unknown,North
2017-08-09T03:00:00Z,1502247600,2017,3,0,221.125,221.125,70.49355,-168.68272,1005.9,-999.00,-999.0,yes,no,no,300025060605620,IMB,AWI-USIABP,unknown,North
2017-08-09T04:00:28Z,1502251229,2017,4,0,221.167,221.167,70.54858,-168.71262,1005.0,-999.00,-999.0,yes,no,no,300025060605620,IMB,AWI-USIABP,unknown,North
2017-08-09T04:59:31Z,1502254771,2017,5,0,221.208,221.208,70.7474,-168.67243,1004.3,-999.00,-999.0,yes,no,no,300025060605620,IMB,AWI-USIABP,unknown,North
2017-08-09T06:00:00Z,1502258400,2017,6,0,221.25,221.25,70.94186,-168.66305,1003.7,-999.00,-999.0,yes,no,no,300025060605620,IMB,AWI-USIABP,unknown,North
2017-08-09T07:00:28Z,1502262029,2017,7,0,221.292,221.292,71.12515,-168.66385,1004.6,-999.00,-999.0,yes,no,no,300025060605620,IMB,AWI-USIABP,unknown,North
2017-08-09T07:59:31Z,1502265571,2017,8,0,221.333,221.333,71.30791,-168.66661,1005.1,-999.00,-999.0,yes,no,no,300025060605620,IMB,AWI-USIABP,unknown,North
2017-08-09T09:00:00Z,1502269200,2017,9,0,221.375,221.375,71.4297,-168.66547,1006.7,-999.00,-999.0,yes,no,no,300025060605620,IMB,AWI-USIABP,unknown,North
2017-08-09T10:00:28Z,1502272829,2017,10,0,221.417,221.417,71.46406,-168.66394,1007.5,-999.00,-999.0,yes,no,no,300025060605620,IMB,AWI-USIABP,unknown,North
2017-08-09T10:59:31Z,1502276371,2017,11,0,221.458,221.458,71.65065,-168.66716,1007.8,-999.00,-999.0,yes,no,no,300025060605620,IMB,AWI-USIABP,unknown,North
2017-08-09T12:00:00Z,1502280000,2017,12,0,221.5,221.5,71.83574,-168.66668,1008.3,-999.00,-999.0,yes,no,no,300025060605620,IMB,AWI-USIABP,unknown,North
2017-08-09T13:00:28Z,1502283629,2017,13,0,221.542,221.542,72.0221,-168.66651,1008.7,-999.00,-999.0,yes,no,no,300025060605620,IMB,AWI-USIABP,unknown,North
2017-08-09T13:59:31Z,1502287171,2017,14,0,221.583,221.583,72.21052,-168.6663,1009.0,-999.00,-999.0,yes,no,no,300025060605620,IMB,AWI-USIABP,unknown,North
2017-08-09T15:00:00Z,1502290800,2017,15,0,221.625,221.625,72.35978,-168.666,1009.7,-999.00,-999.0,yes,no,no,300025060605620,IMB,AWI-USIABP,unknown,North
2017-08-09T16:00:28Z,1502294429,2017,16,0,221.667,221.667,72.36015,-168.66566,1010.1,-999.00,-999.0,yes,no,no,300025060605620,IMB,AWI-USIABP,unknown,North
2017-08-09T16:59:31Z,1502297971,2017,17,0,221.708,221.708,72.35984,-168.66568,1010.8,-999.00,-999.0,yes,no,no,300025060605620,IMB,AWI-USIABP,unknown,North
2017-08-09T18:00:00Z,1502301600,2017,18,0,221.75,221.75,72.35993,-168.6655,1011.1,-999.00,-999.0,yes,no,no,300025060605620,IMB,AWI-USIABP,unknown,North
2017-08-09T19:00:28Z,1502305229,2017,19,0,221.792,221.792,72.39377,-168.69978,1011.2,-999.00,-999.0,yes,no,no,300025060605620,IMB,AWI-USIABP,unknown,North
2017-08-09T19:59:31Z,1502308771,2017,20,0,221.833,221.833,72.5777,-168.54673,1011.1,-999.00,-999.0,yes,no,no,300025060605620,IMB,AWI-USIABP,unknown,North
2017-08-09T21:00:00Z,1502312400,2017,21,0,221.875,221.875,72.75988,-168.45837,1010.9,-999.00,-999.0,yes,no,no,300025060605620,IMB,AWI-USIABP,unknown,North
2017-08-09T22:00:28Z,1502316029,2017,22,0,221.917,221.917,72.94152,-168.36301,1010.3,-999.00,-999.0,yes,no,no,300025060605620,IMB,AWI-USIABP,unknown,North
2017-08-09T22:59:31Z,1502319571,2017,23,0,221.958,221.958,73.05497,-168.30206,1009.7,-999.00,-999.0,yes,no,no,300025060605620,IMB,AWI-USIABP,unknown,North
2017-08-10T00:00:00Z,1502323200,2017,0,0,222.0,222.0,73.05513,-168.30198,1009.6,-999.00,-999.0,yes,no,no,300025060605620,IMB,AWI-USIABP,unknown,North
2017-08-10T01:00:28Z,1502326829,2017,1,0,222.042,222.042,73.21513,-168.29811,1009.2,-999.00,-999.0,yes,no,no,300025060605620,IMB,AWI-USIABP,unknown,North
2017-08-10T01:59:31Z,1502330371,2017,2,0,222.083,222.083,73.42453,-168.28784,1007.8,-999.00,-999.0,yes,no,no,300025060605620,IMB,AWI-USIABP,unknown,North
2017-08-15T03:46:04Z,1502768765,2017,3,46,227.157,227.157,77.70664,-179.87215,988.7,-999.00,-999.0,yes,no,no,300025060605620,IMB,AWI-USIABP,unknown,North
2017-08-15T04:00:28Z,1502769629,2017,4,1,227.167,227.167,77.70731,-179.8717,986.7,-999.00,-999.0,yes,no,no,300025060605620,IMB,AWI-USIABP,unknown,North
2017-08-15T06:00:00Z,1502776800,2017,6,0,227.25,227.25,77.71194,-179.88027,986.2,-999.00,-999.0,yes,no,no,300025060605620,IMB,AWI-USIABP,unknown,North
2017-08-15T07:00:28Z,1502780429,2017,7,0,227.292,227.292,77.71406,-179.88771,986.2,-999.00,-999.0,yes,no,no,300025060605620,IMB,AWI-USIABP,unknown,North
2017-08-15T07:59:31Z,1502783971,2017,8,0,227.333,227.333,77.71637,-179.8957,986.5,-999.00,-999.0,yes,no,no,300025060605620,IMB,AWI-USIABP,unknown,North
2017-08-15T09:00:00Z,1502787600,2017,9,0,227.375,227.375,77.71901,-179.90485,986.6,-999.00,-999.0,yes,no,no,300025060605620,IMB,AWI-USIABP,unknown,North
2017-08-15T10:00:28Z,1502791229,2017,10,0,227.417,227.417,77.72181,-179.91454,987.3,-999.00,-999.0,yes,no,no,300025060605620,IMB,AWI-USIABP,unknown,North
2017-08-15T10:59:31Z,1502794771,2017,11,0,227.458,227.458,77.72441,-179.91912,988.0,-999.00,-999.0,yes,no,no,300025060605620,IMB,AWI-USIABP,unknown,North
2017-08-15T12:00:00Z,1502798400,2017,12,0,227.5,227.5,77.72596,-179.9209,988.7,-999.00,-999.0,yes,no,no,300025060605620,IMB,AWI-USIABP,unknown,North
2017-08-15T13:00:28Z,1502802029,2017,13,0,227.542,227.542,77.72576,-179.92056,989.3,-999.00,-999.0,yes,no,no,300025060605620,IMB,AWI-USIABP,unknown,North
2017-08-15T13:59:31Z,1502805571,2017,14,0,227.583,227.583,77.72435,-179.92624,990.0,-999.00,-999.0,yes,no,no,300025060605620,IMB,AWI-USIABP,unknown,North
2017-08-15T15:00:00Z,1502809200,2017,15,0,227.625,227.625,77.72193,-179.93971,990.7,-999.00,-999.0,yes,no,no,300025060605620,IMB,AWI-USIABP,unknown,North
2017-08-15T16:00:28Z,1502812829,2017,16,0,227.667,227.667,77.71842,-179.96121,991.6,-999.00,-999.0,yes,no,no,300025060605620,IMB,AWI-USIABP,unknown,North
2017-08-15T16:59:31Z,1502816371,2017,17,0,227.708,227.708,77.71463,-179.99126,992.2,-999.00,-999.0,yes,no,no,300025060605620,IMB,AWI-USIABP,unknown,North
2017-08-15T18:00:00Z,1502820000,2017,18,0,227.75,227.75,77.71212,179.97075,993.1,-999.00,-999.0,yes,no,no,300025060605620,IMB,AWI-USIABP,unknown,North
2017-08-15T19:00:28Z,1502823629,2017,19,0,227.792,227.792,77.71111,179.92693,994.0,-999.00,-999.0,yes,no,no,300025060605620,IMB,AWI-USIABP,unknown,North
2017-08-15T19:59:31Z,1502827171,2017,20,0,227.833,227.833,77.71207,179.88412,994.8,-999.00,-999.0,yes,no,no,300025060605620,IMB,AWI-USIABP,unknown,North
2017-08-15T21:00:00Z,1502830800,2017,21,0,227.875,227.875,77.71432,179.84782,995.6,-999.00,-999.0,yes,no,no,300025060605620,IMB,AWI-USIABP,unknown,North
2017-08-15T22:00:28Z,1502834429,2017,22,0,227.917,227.917,77.71775,179.8165,996.3,-999.00,-999.0,yes,no,no,300025060605620,IMB,AWI-USIABP,unknown,North
2017-08-15T22:59:31Z,1502837971,2017,23,0,227.958,227.958,77.72108,179.79174,997.2,-999.00,-999.0,yes,no,no,300025060605620,IMB,AWI-USIABP,unknown,North
2017-08-16T00:00:00Z,1502841600,2017,0,0,228.0,228.0,77.72398,179.77206,998.0,-999.00,-999.0,yes,no,no,300025060605620,IMB,AWI-USIABP,unknown,North
2017-08-16T01:00:28Z,1502845229,2017,1,0,228.042,228.042,77.72557,179.7541,998.5,-999.00,-999.0,yes,no,no,300025060605620,IMB,AWI-USIABP,unknown,North
2017-08-16T01:59:31Z,1502848771,2017,2,0,228.083,228.083,77.72651,179.73479,999.7,-999.00,-999.0,yes,no,no,300025060605620,IMB,AWI-USIABP,unknown,North
2017-08-16T03:00:00Z,1502852400,2017,3,0,228.125,228.125,77.72691,179.71715,1000.2,-999.00,-999.0,yes,no,no,300025060605620,IMB,AWI-USIABP,unknown,North
2017-08-16T04:00:28Z,1502856029,2017,4,0,228.167,228.167,77.72601,179.69188,1001.1,-999.00,-999.0,yes,no,no,300025060605620,IMB,AWI-USIABP,unknown,North
2017-08-16T04:59:31Z,1502859571,2017,5,0,228.208,228.208,77.72468,179.6596,1001.8,-999.00,-999.0,yes,no,no,300025060605620,IMB,AWI-USIABP,unknown,North
2017-08-16T06:00:00Z,1502863200,2017,6,0,228.25,228.25,77.7233,179.62211,1002.3,-999.00,-999.0,yes,no,no,300025060605620,IMB,AWI-USIABP,unknown,North
2017-08-16T07:00:28Z,1502866829,2017,7,0,228.292,228.292,77.7219,179.58083,1003.1,-999.00,-999.0,yes,no,no,300025060605620,IMB,AWI-USIABP,unknown,North
2017-08-16T07:59:31Z,1502870371,2017,8,0,228.333,228.333,77.7229,179.54348,1003.5,-999.00,-999.0,yes,no,no,300025060605620,IMB,AWI-USIABP,unknown,North
2017-08-16T09:00:00Z,1502874000,2017,9,0,228.375,228.375,77.72399,179.51084,1003.4,-999.00,-999.0,yes,no,no,300025060605620,IMB,AWI-USIABP,unknown,North
2017-08-16T10:00:28Z,1502877629,2017,10,0,228.417,228.417,77.72494,179.48895,1003.3,-999.00,-999.0,yes,no,no,300025060605620,IMB,AWI-USIABP,unknown,North
2017-08-16T10:59:31Z,1502881171,2017,11,0,228.458,228.458,77.72498,179.47533,1003.1,-999.00,-999.0,yes,no,no,300025060605620,IMB,AWI-USIABP,unknown,North
2017-08-16T12:00:00Z,1502884800,2017,12,0,228.5,228.5,77.72387,179.46711,1002.6,-999.00,-999.0,yes,no,no,300025060605620,IMB,AWI-USIABP,unknown,North
2017-08-16T13:00:28Z,1502888429,2017,13,0,228.542,228.542,77.72051,179.45915,1002.3,-999.00,-999.0,yes,no,no,300025060605620,IMB,AWI-USIABP,unknown,North
2017-08-16T13:59:31Z,1502891971,2017,14,0,228.583,228.583,77.71537,179.45014,1001.6,-999.00,-999.0,yes,no,no,300025060605620,IMB,AWI-USIABP,unknown,North
2017-08-16T15:00:00Z,1502895600,2017,15,0,228.625,228.625,77.70768,179.4356,1000.9,-999.00,-999.0,yes,no,no,300025060605620,IMB,AWI-USIABP,unknown,North
2017-08-16T16:00:28Z,1502899229,2017,16,0,228.667,228.667,77.69854,179.41382,1000.2,-999.00,-999.0,yes,no,no,300025060605620,IMB,AWI-USIABP,unknown,North
2017-08-16T16:59:31Z,1502902771,2017,17,0,228.708,228.708,77.68904,179.38515,999.7,-999.00,-999.0,yes,no,no,300025060605620,IMB,AWI-USIABP,unknown,North
2017-08-16T18:00:00Z,1502906400,2017,18,0,228.75,228.75,77.67987,179.3494,998.9,-999.00,-999.0,yes,no,no,300025060605620,IMB,AWI-USIABP,unknown,North
2017-08-16T19:00:28Z,1502910029,2017,19,0,228.792,228.792,77.67164,179.31019,998.2,-999.00,-999.0,yes,no,no,300025060605620,IMB,AWI-USIABP,unknown,North
2017-08-16T19:59:31Z,1502913571,2017,20,0,228.833,228.833,77.66512,179.27097,997.5,-999.00,-999.0,yes,no,no,300025060605620,IMB,AWI-USIABP,unknown,North
2017-08-16T21:00:00Z,1502917200,2017,21,0,228.875,228.875,77.66072,179.23405,996.9,-999.00,-999.0,yes,no,no,300025060605620,IMB,AWI-USIABP,unknown,North
2017-08-16T22:00:28Z,1502920829,2017,22,0,228.917,228.917,77.65814,179.20391,996.1,-999.00,-999.0,yes,no,no,300025060605620,IMB,AWI-USIABP,unknown,North
2017-08-16T22:59:31Z,1502924371,2017,23,0,228.958,228.958,77.65596,179.18069,995.5,-999.00,-999.0,yes,no,no,300025060605620,IMB,AWI-USIABP,unknown,North
2017-08-17T00:00:00Z,1502928000,2017,0,0,229.0,229.0,77.65403,179.16628,994.9,-999.00,-999.0,yes,no,no,300025060605620,IMB,AWI-USIABP,unknown,North
2017-08-17T01:00:28Z,1502931629,2017,1,0,229.042,229.042,77.65111,179.15942,994.2,-999.00,-999.0,yes,no,no,300025060605620,IMB,AWI-USIABP,unknown,North
2017-08-17T01:59:31Z,1502935171,2017,2,0,229.083,229.083,77.64765,179.15589,993.9,-999.00,-999.0,yes,no,no,300025060605620,IMB,AWI-USIABP,unknown,North
2017-08-17T03:00:00Z,1502938800,2017,3,0,229.125,229.125,77.64379,179.15136,993.6,-999.00,-999.0,yes,no,no,300025060605620,IMB,AWI-USIABP,unknown,North
2017-08-17T04:00:28Z,1502942429,2017,4,0,229.167,229.167,77.63968,179.14446,993.6,-999.00,-999.0,yes,no,no,300025060605620,IMB,AWI-USIABP,unknown,North
2017-08-17T04:59:31Z,1502945971,2017,5,0,229.208,229.208,77.63568,179.13332,993.3,-999.00,-999.0,yes,no,no,300025060605620,IMB,AWI-USIABP,unknown,North
2017-08-17T06:00:00Z,1502949600,2017,6,0,229.25,229.25,77.63246,179.11736,993.8,-999.00,-999.0,yes,no,no,300025060605620,IMB,AWI-USIABP,unknown,North
2017-08-17T07:00:28Z,1502953229,2017,7,0,229.292,229.292,77.63054,179.09682,993.9,-999.00,-999.0,yes,no,no,300025060605620,IMB,AWI-USIABP,unknown,North
2017-08-17T07:59:31Z,1502956771,2017,8,0,229.333,229.333,77.63044,179.0752,994.2,-999.00,-999.0,yes,no,no,300025060605620,IMB,AWI-USIABP,unknown,North
2017-08-17T09:00:00Z,1502960400,2017,9,0,229.375,229.375,77.63182,179.05543,994.7,-999.00,-999.0,yes,no,no,300025060605620,IMB,AWI-USIABP,unknown,North
2017-08-17T10:00:28Z,1502964029,2017,10,0,229.417,229.417,77.63481,179.0408,995.2,-999.00,-999.0,yes,no,no,300025060605620,IMB,AWI-USIABP,unknown,North
2017-08-17T10:59:31Z,1502967571,2017,11,0,229.458,229.458,77.63872,179.03252,995.6,-999.00,-999.0,yes,no,no,300025060605620,IMB,AWI-USIABP,unknown,North
2017-08-17T12:00:00Z,1502971200,2017,12,0,229.5,229.5,77.64264,179.03001,996.0,-999.00,-999.0,yes,no,no,300025060605620,IMB,AWI-USIABP,unknown,North
2017-08-17T13:00:28Z,1502974829,2017,13,0,229.542,229.542,77.64637,179.03256,996.4,-999.00,-999.0,yes,no,no,300025060605620,IMB,AWI-USIABP,unknown,North
2017-08-17T13:59:31Z,1502978371,2017,14,0,229.583,229.583,77.64948,179.03783,997.1,-999.00,-999.0,yes,no,no,300025060605620,IMB,AWI-USIABP,unknown,North
2017-08-17T15:00:00Z,1502982000,2017,15,0,229.625,229.625,77.65235,179.04137,997.5,-999.00,-999.0,yes,no,no,300025060605620,IMB,AWI-USIABP,unknown,North
